{"data":{"norad_id":62209,"epoch":"2026-05-25T04:10:51.933216Z","epoch_age_seconds":60272,"freshness":"FRESH","line1":"1 62209U 24229T   26145.17421219  .00013146  00000+0  48613-3 0  9992","line2":"2 62209  42.9954 199.1982 0000325   4.7305 355.3550 15.27596224 82258","mean_motion":15.27596224,"eccentricity":3.25e-5,"inclination_deg":42.9954,"raan_deg":199.1982,"arg_perigee_deg":4.7305,"mean_anomaly_deg":355.355,"bstar":0.00048613,"rev_number":8225,"period_min":94.265747543508,"perigee_km":482.77752900779,"apogee_km":483.22350294633,"semimajor_km":6861.1375159771,"source":"CELESTRAK","updated_at":"2026-05-25T13:38:19.609846Z"}}